P/1996 A1 ( Jedicke ) 2014

Japanese version
Home page
Updated on July 22, 2011

---------------------------------------------------------------------

* Profile

* Orbital Elements

Perturbed ephemeris below is based on elements from MPC 31893. 

 Epoch = 2456960.50000 TT   T = 2456976.86641 TT
 Peri. =  223.37619         a =     7.3255168 AU
 Node  =  248.71732 J2000.0 e =     0.4431253
 Incl. =    6.60233         q =     4.0793951 AU

* Finding Charts

* Magnitudes Graph

        m1 = 4.2 + 5 log d + 15.0 log r

---------------------------------------------------------------------

The orbital elements are calculated using the Minor Planet & Comet Ephemeris Service.
The charts are made with StellaNavigator Ver.8 (AstroArts).
The magnitudes graphs are made with Comet for Windows.

---------------------------------------------------------------------

Copyright(C) Seiichi Yoshida (comet@aerith.net). All rights reserved.